Wetbulb
74.82 76.58 76.50 76.46 76.30 76.73 76.63 76.14 76.60 76.27 76.24 76.46 76.76 76.13 76.14 76.05 75.60 75.67 75.86 75.83 75.79 75.85 76.44 76.09 76.14 76.17 76.22 75.98 76.11 76.39 75.94 76.54 76.22 75.39 76.00 76.21 77.18 77.19 76.77 75.25 77.30 75.75 76.59
75.53 76.21 76.27 76.19 76.90 76.72 76.61 76.65 76.69 76.28 76.80 76.58 76.42 76.61 76.57 76.46 76.50 76.39 76.50 75.99 76.19 76.28 76.31 75.98 75.78 75.75 75.59 75.53 75.70 76.00 76.46 76.16 76.55 75.73 76.85 77.01 75.20 75.03 75.45 76.64 77.51 73.84 75.46
74.96 76.04 76.75 76.21 76.99 76.95 76.88 76.85 76.64 76.61 76.66 76.73 76.60 76.41 76.67 76.47 76.48 76.23 76.49 76.44 76.56 76.42 76.03 75.81 75.70 75.64 75.23 74.89 75.34 75.45 75.67 76.06 75.83 76.80 76.69 75.79 76.67 76.06 75.73 75.59 75.69 76.14 74.53
74.98 75.85 76.25 76.79 77.22 77.12 76.69 76.89 76.75 76.84 76.83 76.80 76.60 76.27 76.43 76.57 76.33 76.74 76.63 76.71 76.58 76.47 76.09 75.84 75.53 75.19 75.17 75.20 75.17 75.34 75.83 75.57 75.17 75.86 76.08 75.54 75.29 76.58 76.32 75.96 75.84 74.81 75.68
74.94 75.89 77.17 76.65 77.00 75.97 76.13 76.50 76.18 76.65 76.48 76.35 76.32 75.31 75.67 75.92 76.06 76.32 76.42 76.20 76.14 76.06 76.25 75.75 75.42 74.98 74.91 74.47 74.95 74.61 74.78 75.14 74.01 74.80 75.39 75.73 74.49 76.63 76.19 75.51 75.03 75.11 75.13
75.79 76.89 76.73 75.96 76.40 76.35 76.56 76.34 75.89 76.58 76.53 75.64 75.50 75.67 75.67 75.92 76.00 75.83 75.70 75.50 75.48 75.39 75.36 75.45 75.42 74.61 74.85 74.37 74.26 74.95 74.14 75.08 74.42 74.77 73.68 75.34 74.83 76.26 75.81 75.78 75.94 75.13 74.17
74.52 75.55 77.06 76.69 76.59 76.93 76.66 76.16 75.88 76.56 76.02 75.99 75.78 75.97 75.89 75.81 75.12 74.59 74.14 73.99 73.85 73.98 74.53 74.63 74.86 73.82 72.77 73.37 73.87 74.81 73.54 73.23 75.16 74.89 75.05 75.54 75.37 76.71 75.89 75.72 75.75 75.60 74.89
74.15 74.88 74.60 76.40 76.60 76.09 75.91 75.72 75.90 76.24 76.00 75.42 75.20 74.89 74.86 74.31 74.19 74.39 74.59 75.00 75.20 75.17 75.64 75.55 73.35 72.00 72.11 72.60 73.64 75.35 74.03 73.13 74.17 72.91 74.54 75.03 76.18 76.13 76.04 75.65 75.53 74.99 75.41
73.25 74.69 75.88 76.72 76.68 77.09 76.32 75.72 75.55 75.53 75.64 75.33 74.80 74.66 74.58 75.13 75.08 74.97 75.14 74.87 74.89 75.58 75.64 75.52 74.30 74.31 73.93 73.79 74.64 75.41 73.79 73.18 73.87 73.92 74.07 73.82 74.20 74.96 75.82 76.21 75.75 74.04 73.60
72.72 74.47 75.41 75.89 75.10 74.89 74.69 75.09 75.25 75.56 75.17 75.14 75.14 74.91 75.60 75.49 75.61 75.15 74.87 74.64 75.78 74.90 75.85 76.39 76.11 75.86 74.88 75.34 75.25 74.29 73.65 74.25 73.95 73.64 74.14 73.59 74.25 74.92 75.41 75.02 74.67 74.61 74.44
72.22 74.11 74.49 74.20 74.88 75.47 74.95 75.92 76.03 76.03 76.45 76.25 75.85 75.83 76.39 76.70 77.27 77.21 75.71 76.17 76.33 76.57 76.94 77.01 76.94 76.55 75.29 75.34 75.54 75.18 74.81 73.88 74.28 74.29 73.29 73.14 73.88 74.53 75.02 74.89 74.70 74.56 74.26
70.65 72.35 73.05 73.87 74.48 75.66 74.88 77.29 76.73 76.97 75.95 77.35 77.83 78.39 76.80 77.62 77.46 76.33 76.79 76.99 76.98 77.47 77.23 77.20 77.61 77.74 76.84 74.95 74.80 75.53 75.44 74.01 73.33 73.19 72.39 73.43 73.82 74.39 75.24 75.35 75.29 75.07 75.21
71.36 71.73 72.50 73.77 75.26 74.91 76.51 76.23 75.89 76.56 76.98 77.50 78.77 80.03 78.94 78.04 78.15 77.14 77.83 77.53 77.88 78.38 76.91 76.93 76.75 76.79 76.66 76.19 74.88 74.93 74.63 73.95 73.98 74.26 74.24 74.20 74.46 75.47 75.90 75.75 75.77 75.42 74.96
70.61 71.61 72.72 73.82 75.15 76.57 75.80 74.97 76.33 74.84 76.27 77.08 77.53 79.06 79.04 76.16 76.86 79.23 76.78 77.14 79.19 77.16 77.07 74.40 76.44 76.98 76.19 76.94 76.33 75.48 74.84 74.24 74.02 74.20 74.64 74.66 76.00 76.42 76.06 75.40 74.72 73.46 72.69
69.80 71.30 72.86 75.02 77.17 77.11 77.23 77.01 78.36 75.49 75.39 76.27 76.79 78.49 77.57 76.36 75.86 77.49 76.41 75.85 78.78 77.64 75.98 77.10 77.19 76.78 76.40 76.11 76.62 75.45 74.56 74.43 73.47 74.44 74.96 75.99 76.73 76.47 75.24 73.88 73.06 72.57 71.83
70.08 71.03 74.50 75.98 76.94 77.39 77.63 77.80 77.38 76.45 77.06 76.03 77.02 78.35 79.49 78.38 78.65 75.15 79.03 75.52 75.62 76.38 77.03 78.09 77.77 78.51 75.61 75.73 75.59 75.53 74.50 75.68 75.33 74.58 75.29 75.69 76.94 76.63 75.13 73.53 72.93 72.13 71.18
70.17 71.74 74.51 75.87 77.02 77.49 77.76 77.48 77.53 76.42 76.07 76.49 77.49 79.31 78.92 79.72 79.65 78.55 75.61 75.61 75.79 78.24 78.46 78.07 77.37 76.52 75.52 75.74 76.13 74.92 74.00 74.80 74.26 74.28 74.61 74.98 75.54 76.35 75.49 73.40 72.64 71.67 70.86
70.15 72.77 75.14 75.66 76.56 76.90 77.51 77.26 76.87 76.82 76.22 76.96 77.31 78.44 79.20 79.16 80.14 77.88 75.85 75.82 76.25 75.92 75.48 75.28 74.54 73.18 74.70 74.70 74.87 75.55 74.10 74.83 75.41 74.91 75.22 73.44 75.45 73.17 74.38 74.05 73.01 71.90 70.80
70.66 73.97 75.12 76.22 75.85 76.58 78.07 77.71 77.87 78.24 76.77 76.92 76.91 77.43 78.81 79.18 79.00 80.19 77.15 76.97 77.32 73.55 73.45 73.23 74.59 74.39 74.78 74.20 74.28 74.77 75.20 75.01 76.01 75.62 75.11 75.12 74.75 74.73 73.51 73.78 73.56 72.86 71.37
71.57 74.52 75.76 76.00 77.03 78.07 77.58 77.87 76.71 76.78 76.35 76.78 77.10 77.76 79.53 78.35 78.17 79.80 77.33 78.51 77.93 74.63 73.07 73.99 76.84 75.76 74.81 74.66 73.18 74.12 74.81 75.20 75.57 74.67 75.02 75.01 74.85 74.10 73.64 74.05 73.38 72.12 72.02
71.58 73.95 75.41 76.05 78.90 77.71 76.14 74.99 75.29 74.50 75.66 76.04 77.67 78.57 78.18 77.67 77.98 79.48 77.47 78.55 77.58 76.47 75.60 75.90 73.54 74.40 73.46 76.29 72.91 72.69 73.71 74.60 74.09 74.08 74.66 73.48 74.54 73.58 73.12 73.11 72.11 72.95 72.02
71.26 72.99 75.26 76.04 77.59 77.64 76.48 77.84 76.65 76.56 75.71 76.08 77.18 77.90 77.57 78.39 79.40 78.87 79.46 78.14 79.07 77.73 77.81 75.70 74.72 70.75 70.22 73.22 71.12 70.51 69.04 71.04 70.89 70.49 71.06 70.76 71.52 70.71 70.99 72.70 72.11 71.88 71.73
71.05 71.67 74.48 76.84 77.66 78.48 79.71 77.15 77.78 77.78 77.41 75.96 76.78 76.74 77.30 78.26 79.33 79.77 79.50 79.12 79.29 79.32 76.23 75.09 73.12 72.15 68.02 69.13 72.48 69.55 66.30 63.39 65.27 70.24 69.98 68.58 69.72 68.39 69.10 68.96 70.34 71.22 72.29
71.40 71.84 74.58 76.74 78.47 77.82 79.84 78.48 80.40 75.55 74.25 74.57 76.13 77.30 76.88 77.91 78.23 78.99 79.51 79.77 80.21 78.10 78.14 75.60 73.57 71.99 73.08 68.77 69.17 68.74 71.28 68.94 64.28 63.53 68.54 69.01 68.70 68.45 68.72 68.01 68.45 70.20 71.95
72.24 71.45 73.76 77.85 78.36 79.39 79.57 79.63 77.16 77.67 75.29 75.53 75.75 78.50 79.76 79.30 78.44 78.21 79.42 79.73 79.75 78.54 78.81 77.25 75.62 73.52 69.26 69.58 67.38 67.71 69.52 67.26 68.82 63.95 61.44 63.72 66.53 68.02 68.74 68.77 68.48 68.77 70.65
73.40 72.25 73.36 77.67 79.20 79.17 78.66 77.82 79.67 79.32 78.87 75.48 77.31 75.97 75.43 76.42 77.57 78.77 79.44 80.01 80.22 80.22 79.04 77.97 76.25 74.66 72.97 71.24 68.74 67.89 65.58 64.48 64.17 63.72 62.47 65.99 64.07 66.64 68.25 68.60 68.26 68.76 68.55
MSLP
1011.92 1012.62 1013.33 1013.46 1013.47 1013.51 1013.62 1013.77 1013.96 1014.08 1014.14 1014.19 1014.22 1014.36 1014.50 1014.57 1014.58 1014.73 1014.89 1014.98 1015.10 1015.12 1015.04 1015.11 1015.05 1015.09 1015.14 1015.24 1015.28 1015.38 1015.49 1015.54 1015.59 1015.66 1015.71 1015.78 1015.90 1015.93 1015.98 1015.94 1015.58 1015.74 1016.41
1011.81 1012.57 1013.50 1013.60 1013.66 1013.75 1013.86 1014.06 1014.30 1014.39 1014.38 1014.45 1014.58 1014.66 1014.69 1014.71 1014.82 1014.92 1014.99 1015.36 1015.24 1015.23 1015.23 1015.32 1015.35 1015.35 1015.41 1015.47 1015.53 1015.62 1015.72 1015.76 1015.81 1015.83 1015.83 1015.86 1016.18 1016.27 1016.32 1016.30 1015.92 1016.51 1016.71
1011.58 1012.70 1013.29 1013.84 1013.87 1014.05 1014.27 1014.44 1014.57 1014.68 1014.67 1014.72 1014.81 1014.84 1014.90 1014.99 1015.09 1015.18 1015.16 1015.25 1015.37 1015.44 1015.48 1015.51 1015.55 1015.60 1015.67 1015.74 1015.78 1015.82 1015.91 1015.93 1015.98 1015.90 1015.78 1015.08 1015.82 1016.62 1016.69 1016.70 1016.82 1016.93 1016.97
1011.80 1012.68 1013.18 1014.12 1014.18 1014.34 1014.50 1014.66 1014.78 1014.83 1014.87 1014.88 1014.92 1014.99 1015.06 1015.19 1015.28 1015.31 1015.42 1015.42 1015.52 1015.64 1015.70 1015.70 1015.73 1015.80 1015.89 1015.94 1016.06 1016.15 1016.15 1016.27 1016.13 1015.98 1015.62 1015.57 1015.16 1016.74 1016.99 1017.09 1017.17 1017.29 1017.23
1012.42 1012.87 1013.70 1014.27 1014.44 1014.59 1014.67 1015.02 1015.01 1015.02 1015.02 1015.03 1015.05 1015.16 1015.25 1015.37 1015.48 1015.56 1015.59 1015.67 1015.78 1015.87 1015.88 1015.97 1015.92 1016.01 1015.96 1016.09 1016.22 1016.32 1016.34 1016.40 1016.29 1015.94 1015.08 1015.27 1015.58 1016.78 1017.14 1017.29 1017.40 1017.49 1017.40
1011.44 1012.47 1013.98 1014.42 1014.65 1014.83 1015.06 1015.02 1015.12 1015.21 1015.20 1015.24 1015.28 1015.42 1015.51 1015.56 1015.64 1015.73 1015.85 1015.97 1016.10 1016.16 1016.12 1016.17 1016.23 1016.16 1016.12 1016.24 1016.36 1016.47 1016.58 1016.57 1016.46 1015.62 1015.57 1015.61 1016.28 1017.09 1017.28 1017.34 1017.42 1017.67 1017.79
1011.96 1012.84 1013.86 1014.55 1014.80 1015.08 1015.08 1015.23 1015.33 1015.37 1015.40 1015.42 1015.45 1015.58 1015.70 1015.76 1015.75 1015.80 1015.91 1016.04 1016.18 1016.27 1016.30 1016.16 1016.07 1016.13 1016.22 1016.34 1016.48 1016.72 1016.69 1016.62 1016.14 1016.08 1015.91 1015.99 1016.89 1017.34 1017.48 1017.58 1017.73 1017.84 1017.92
1011.67 1012.75 1013.82 1014.71 1015.00 1015.12 1015.30 1015.42 1015.48 1015.54 1015.46 1015.54 1015.63 1015.73 1015.82 1015.75 1015.78 1015.91 1015.99 1015.98 1016.10 1016.23 1016.10 1015.88 1015.94 1016.04 1016.16 1016.22 1016.53 1016.82 1016.74 1016.50 1016.03 1016.63 1016.48 1016.71 1017.53 1017.58 1017.61 1017.71 1017.82 1017.86 1017.88
1012.04 1012.67 1013.34 1014.22 1014.96 1015.21 1015.45 1015.52 1015.64 1015.59 1015.61 1015.67 1015.68 1015.73 1015.68 1015.58 1015.76 1015.84 1015.86 1015.89 1015.96 1016.00 1016.07 1015.98 1016.08 1016.14 1016.30 1016.47 1016.68 1016.75 1016.90 1016.68 1016.08 1016.09 1016.02 1017.00 1017.84 1017.78 1017.76 1017.83 1017.88 1017.89 1017.94
1012.20 1012.25 1012.64 1013.70 1014.18 1014.56 1015.20 1015.59 1015.65 1015.68 1015.71 1015.71 1015.68 1015.65 1015.40 1015.60 1015.54 1015.63 1015.63 1015.81 1015.92 1015.88 1015.98 1016.06 1016.19 1016.31 1016.51 1016.66 1016.81 1016.88 1016.66 1016.54 1015.83 1016.22 1016.39 1017.59 1018.00 1017.97 1017.93 1017.88 1017.89 1017.94 1018.02
1012.31 1012.31 1012.65 1013.64 1014.07 1014.26 1014.73 1015.18 1015.47 1015.52 1015.48 1015.32 1015.58 1015.38 1015.30 1015.04 1014.55 1014.91 1015.46 1015.73 1015.78 1015.84 1016.03 1016.16 1016.25 1016.37 1016.55 1016.80 1016.90 1016.74 1016.63 1015.94 1015.94 1015.84 1016.92 1018.11 1018.14 1018.09 1018.10 1018.06 1018.05 1018.05 1018.16
1012.16 1012.46 1012.68 1013.17 1013.62 1013.86 1014.17 1014.62 1014.80 1014.81 1015.17 1014.84 1015.15 1014.48 1014.60 1014.52 1014.42 1014.39 1015.08 1015.47 1015.59 1015.63 1015.73 1015.83 1015.78 1016.04 1015.78 1015.77 1016.22 1016.49 1015.83 1015.96 1015.96 1016.39 1017.57 1018.26 1018.27 1018.26 1018.24 1018.22 1018.22 1018.34 1018.36
1011.86 1012.10 1012.51 1012.96 1013.41 1013.28 1013.80 1014.00 1014.48 1014.02 1014.30 1014.69 1014.89 1014.42 1014.50 1014.01 1014.32 1014.40 1014.09 1014.44 1014.48 1014.78 1014.72 1014.76 1015.83 1015.54 1015.29 1014.46 1015.12 1015.01 1015.30 1015.11 1015.22 1016.39 1017.96 1018.31 1018.34 1018.32 1018.42 1018.50 1018.60 1018.61 1018.69
1011.74 1011.94 1012.43 1013.09 1013.41 1013.45 1013.69 1013.79 1013.83 1014.30 1014.52 1014.05 1014.63 1014.57 1014.49 1013.92 1013.82 1013.57 1013.61 1013.73 1013.62 1013.65 1013.58 1015.17 1014.08 1014.68 1014.58 1014.60 1014.81 1014.30 1014.25 1014.75 1015.29 1016.42 1018.12 1018.47 1018.46 1018.46 1018.58 1018.69 1018.77 1018.82 1018.91
1011.71 1012.13 1012.61 1013.55 1013.76 1013.93 1013.57 1013.90 1013.83 1013.62 1013.49 1014.18 1014.27 1014.42 1014.28 1014.00 1015.27 1013.93 1013.93 1013.61 1013.83 1013.86 1013.62 1013.76 1014.05 1014.47 1015.04 1014.49 1014.95 1015.26 1014.70 1015.02 1015.72 1016.05 1017.42 1018.36 1018.55 1018.71 1018.85 1018.96 1019.04 1019.14 1019.26
1011.61 1012.24 1012.98 1013.66 1014.08 1014.28 1014.40 1014.44 1014.00 1013.61 1014.30 1013.84 1014.05 1014.86 1014.90 1014.48 1014.42 1014.99 1014.09 1013.75 1013.72 1014.75 1014.21 1014.16 1014.86 1014.48 1015.12 1014.54 1014.70 1014.50 1015.16 1014.98 1015.33 1015.79 1016.68 1017.74 1018.32 1018.52 1018.88 1019.14 1019.38 1019.51 1019.52
1011.54 1012.22 1013.13 1013.60 1013.87 1014.51 1014.77 1014.65 1013.89 1013.98 1013.68 1013.97 1014.76 1015.12 1015.05 1014.93 1014.65 1014.59 1014.19 1014.12 1014.25 1014.91 1015.03 1014.99 1014.69 1014.70 1014.17 1014.27 1014.64 1014.60 1014.65 1014.68 1015.19 1015.54 1016.11 1016.88 1017.82 1018.50 1018.61 1019.06 1019.35 1019.42 1019.56
1011.41 1012.24 1013.12 1013.04 1013.75 1014.36 1014.48 1014.37 1013.66 1013.76 1013.67 1013.68 1014.07 1014.74 1015.14 1015.23 1014.90 1014.93 1014.16 1014.75 1014.82 1014.53 1014.49 1014.71 1014.68 1014.68 1014.56 1014.35 1014.66 1014.56 1014.78 1014.94 1015.62 1015.52 1015.70 1017.32 1017.46 1018.22 1018.87 1018.82 1019.02 1019.48 1019.52
1011.34 1012.24 1013.02 1013.16 1013.59 1014.10 1014.62 1014.20 1014.07 1014.43 1013.66 1013.71 1013.85 1014.38 1015.08 1015.22 1014.92 1014.32 1014.40 1015.04 1014.90 1015.02 1015.13 1015.06 1015.12 1014.93 1015.05 1014.66 1014.76 1014.99 1014.97 1015.06 1015.32 1015.36 1015.97 1016.12 1016.63 1016.82 1017.89 1018.88 1018.96 1019.18 1019.36
1011.27 1012.20 1012.91 1013.28 1013.56 1014.06 1014.50 1014.48 1014.02 1014.26 1013.90 1013.85 1013.83 1014.54 1014.94 1015.23 1015.34 1015.14 1015.26 1015.17 1014.67 1014.99 1015.64 1015.98 1015.76 1015.33 1014.92 1014.64 1014.34 1015.11 1015.23 1015.22 1015.30 1015.57 1015.82 1015.68 1016.37 1016.84 1016.92 1017.88 1018.75 1018.92 1019.33
1011.08 1011.89 1012.72 1013.34 1013.76 1014.04 1014.24 1014.00 1013.81 1013.79 1013.84 1013.86 1014.17 1015.18 1015.50 1015.37 1015.52 1015.21 1014.63 1014.93 1015.48 1015.80 1016.18 1016.25 1016.05 1016.04 1015.60 1015.64 1015.15 1015.32 1015.64 1015.75 1015.69 1015.58 1015.52 1015.79 1016.13 1016.44 1017.17 1017.32 1017.80 1017.82 1018.74
1010.78 1011.71 1012.44 1013.16 1013.85 1014.02 1013.94 1013.66 1013.44 1013.42 1013.78 1013.96 1014.32 1015.30 1015.45 1015.56 1015.42 1015.47 1015.22 1015.40 1015.64 1015.93 1016.37 1016.53 1016.52 1015.81 1015.96 1016.08 1015.28 1014.90 1014.84 1015.35 1015.36 1015.67 1016.13 1016.32 1016.58 1016.52 1016.46 1016.95 1017.44 1017.49 1017.67
1010.22 1011.34 1012.06 1012.88 1013.56 1013.88 1013.65 1013.83 1013.96 1013.74 1013.95 1014.29 1014.79 1015.13 1015.42 1015.70 1015.59 1015.53 1015.71 1015.74 1015.81 1015.36 1016.18 1016.53 1016.62 1016.48 1015.83 1016.36 1016.56 1015.86 1014.91 1014.82 1015.17 1015.92 1016.57 1016.55 1017.22 1017.04 1017.03 1016.76 1017.14 1017.52 1017.88
1009.61 1010.81 1011.62 1012.60 1013.22 1013.74 1013.66 1013.71 1013.97 1013.81 1013.76 1013.82 1014.21 1014.47 1015.28 1015.52 1015.62 1015.50 1015.54 1015.69 1015.84 1015.91 1016.46 1016.67 1016.91 1016.67 1016.70 1016.12 1016.30 1016.54 1016.85 1016.82 1016.16 1015.54 1015.95 1016.47 1016.85 1017.06 1017.24 1017.14 1016.94 1017.45 1017.78
1008.74 1009.87 1010.82 1012.09 1012.81 1013.28 1013.62 1013.56 1013.97 1013.81 1013.44 1013.77 1013.84 1014.96 1014.97 1015.66 1015.55 1015.24 1015.49 1015.68 1015.92 1015.71 1016.78 1017.04 1017.20 1017.25 1016.68 1016.44 1016.21 1016.35 1016.86 1016.62 1016.94 1016.61 1015.78 1015.90 1015.97 1016.43 1016.75 1016.82 1016.99 1016.84 1017.12
1008.12 1008.99 1009.98 1011.26 1012.25 1012.92 1013.44 1013.74 1013.78 1013.74 1013.50 1013.62 1013.88 1014.68 1014.75 1014.91 1015.42 1015.54 1015.64 1015.75 1015.80 1016.22 1016.51 1016.92 1017.34 1017.54 1017.56 1017.34 1016.96 1016.92 1016.78 1016.73 1016.70 1016.63 1016.22 1015.94 1016.06 1015.72 1016.22 1016.66 1016.78 1016.79 1016.96
Wind_Speed
10 12 7 6 7 8 8 8 9 7 8 10 9 10 11 9 9 9 10 11 11 12 13 13 12 12 11 10 10 10 10 10 11 11 13 12 11 10 8 6 7 14 11
14 12 7 6 8 9 9 9 8 9 10 10 10 11 10 9 10 9 11 12 12 13 13 13 12 11 10 9 9 9 9 9 10 11 13 14 11 9 9 12 17 12 9
15 13 10 5 9 10 10 9 10 11 10 11 11 10 10 10 10 10 11 12 13 12 11 11 11 10 9 8 8 8 8 8 7 9 11 8 13 9 10 12 11 10 10
13 9 12 8 9 11 11 9 10 11 11 10 10 10 10 9 11 11 11 12 12 11 10 9 9 8 8 7 8 7 7 5 3 6 6 6 14 10 10 10 10 8 9
14 11 12 8 9 9 10 12 11 11 11 10 9 9 10 9 9 9 10 9 9 8 7 7 8 7 7 7 6 7 6 5 3 8 3 6 3 11 8 7 10 9 11
13 16 11 8 7 9 10 12 10 10 9 9 9 8 8 8 8 7 7 7 7 7 7 9 9 8 7 6 6 7 6 5 6 4 5 10 7 10 7 6 8 9 9
12 15 13 8 8 12 11 11 9 8 8 8 7 6 7 7 5 4 4 4 4 5 6 7 8 8 6 7 6 9 5 4 4 3 2 11 10 7 8 6 6 6 5
16 13 12 10 9 10 9 9 7 6 7 6 5 4 5 2 2 1 1 2 2 3 4 6 4 3 2 5 8 10 3 3 8 4 6 8 8 7 7 5 6 5 5
12 12 13 11 11 10 9 7 6 5 4 5 3 3 4 4 1 0 1 1 1 2 4 9 7 5 7 7 13 11 7 6 6 7 8 8 6 6 6 8 6 4 4
11 11 11 11 11 10 11 7 6 5 4 4 4 4 7 5 5 5 6 3 1 3 6 8 9 12 10 11 11 9 9 9 6 6 9 7 6 6 6 4 4 4 2
9 7 10 10 9 9 10 9 9 9 8 9 8 8 9 7 9 10 8 4 5 7 10 11 11 14 13 12 11 10 9 5 6 4 8 8 6 5 6 6 5 4 3
12 12 11 11 10 9 8 9 10 10 7 2 3 4 5 6 5 7 6 7 8 9 13 14 15 17 19 11 9 10 5 7 6 7 7 7 6 5 6 8 7 8 10
12 10 11 11 10 7 6 4 4 3 5 6 3 2 3 4 6 8 7 8 8 14 8 13 7 9 14 4 7 8 7 9 6 9 9 8 6 8 10 11 13 13 13
12 11 12 11 5 6 7 3 9 5 4 3 7 5 4 4 5 2 3 4 3 6 2 10 4 8 6 5 6 7 8 5 7 9 8 8 7 11 13 13 14 14 14
12 11 12 11 4 6 3 6 2 6 7 6 7 4 4 4 4 5 1 5 4 8 5 4 7 1 8 8 1 13 4 5 13 8 8 10 10 12 13 13 13 14 14
13 12 13 11 9 7 8 5 3 8 6 5 7 6 3 2 3 5 2 5 4 6 9 7 5 2 10 6 8 2 9 15 5 11 11 10 14 15 13 13 13 13 12
13 13 13 13 11 8 9 8 4 7 7 6 7 4 3 4 0 7 6 7 6 5 4 4 4 3 3 6 7 4 6 3 9 1 11 12 13 15 16 14 13 12 12
14 14 13 12 12 9 8 5 5 3 6 6 8 8 7 5 5 7 7 8 5 4 5 5 4 3 2 6 3 4 5 6 4 3 7 8 9 9 11 14 14 12 11
15 14 13 11 12 10 8 7 6 3 5 5 5 9 3 6 3 5 7 5 3 5 5 4 3 4 2 4 6 3 3 5 6 7 3 2 5 7 9 11 14 13 11
16 15 13 10 11 9 8 6 8 7 5 5 3 10 2 6 3 8 7 2 2 5 6 6 6 4 2 4 6 5 3 3 2 4 5 6 9 2 2 11 10 10 10
16 17 15 12 11 8 9 8 7 8 7 5 8 6 4 3 4 5 7 5 8 6 5 2 5 2 4 2 4 5 4 4 3 2 1 3 6 6 4 1 4 7 9
18 17 16 14 12 10 8 7 6 7 6 7 8 6 5 5 4 6 3 5 6 9 5 4 4 0 4 3 4 4 6 6 5 3 4 4 6 6 3 4 1 2 4
19 19 16 14 14 12 9 7 3 4 5 4 8 7 6 5 4 5 5 5 2 3 7 4 4 4 4 3 3 5 3 5 3 5 4 5 3 5 6 4 3 4 3
19 19 17 15 14 13 10 9 8 7 7 7 7 7 7 5 4 4 4 5 5 7 4 5 4 2 6 5 3 5 5 4 5 2 6 6 4 1 3 4 3 1 2
21 20 19 16 14 13 12 9 10 10 7 6 6 9 2 5 4 3 3 3 3 6 7 5 4 5 3 4 3 2 3 1 3 3 4 2 2 3 2 1 4 3 5
20 21 20 18 15 14 14 13 10 10 7 8 6 7 7 8 8 4 4 1 3 4 4 5 3 6 5 5 3 2 4 3 4 3 5 4 2 2 1 0 3 2 3
Wind_Direction
131 119 145 130 124 124 126 106 102 98 89 87 82 86 93 97 94 92 96 94 91 92 88 84 82 86 78 79 88 99 106 109 106 110 109 100 95 92 77 84 142 98 98
133 130 136 143 130 104 96 95 87 94 92 89 86 81 83 88 90 93 98 95 99 95 91 88 86 82 82 82 90 103 112 114 123 130 128 112 100 91 77 53 64 88 91
110 120 145 113 121 107 97 102 97 93 91 87 87 91 90 88 92 96 95 97 94 89 86 87 87 87 88 88 90 101 112 120 143 166 177 152 106 99 80 72 78 85 84
122 124 124 107 115 107 104 101 100 99 90 90 97 93 93 90 87 83 89 84 87 86 89 89 85 86 85 84 92 101 105 121 196 229 241 300 107 104 94 97 98 95 97
119 126 106 118 116 114 115 106 101 101 102 100 101 92 90 87 86 85 85 86 84 79 70 80 83 85 75 87 98 96 106 128 269 293 61 67 26 106 105 116 123 94 70
154 105 121 122 111 114 110 93 95 91 105 99 92 90 87 84 81 80 80 77 74 73 57 52 60 71 89 97 103 99 100 151 231 73 108 99 86 103 101 85 84 80 83
103 111 127 120 103 100 99 102 104 100 100 94 92 84 77 71 68 60 56 59 62 62 61 61 73 73 91 97 125 120 116 177 204 99 26 62 77 87 94 86 89 86 84
114 122 135 130 113 101 107 109 113 104 106 105 94 85 88 108 120 81 29 11 25 70 90 89 80 85 112 152 139 133 160 297 127 97 78 79 77 85 86 105 103 92 103
130 137 137 134 122 117 118 124 125 130 115 107 121 128 173 199 181 238 300 315 21 69 128 154 205 194 150 132 139 155 163 206 195 126 136 104 89 90 81 88 114 96 104
143 149 137 126 146 154 151 144 151 157 142 142 163 198 224 202 181 186 204 158 229 129 122 127 116 128 124 123 141 153 186 209 173 171 77 92 99 98 100 115 127 120 125
141 148 128 138 162 138 139 149 179 181 187 184 172 206 224 216 156 166 88 86 107 131 126 133 138 139 129 129 152 185 214 88 132 127 93 114 110 100 86 92 99 90 62
159 157 153 156 133 161 150 156 213 135 204 168 89 207 205 76 46 76 126 172 171 160 153 158 169 161 172 146 172 191 201 146 120 88 95 115 104 93 83 96 83 68 56
161 162 147 140 189 144 83 180 92 110 131 119 124 41 31 144 178 195 147 175 181 177 180 174 162 189 194 136 162 105 149 152 143 87 99 117 115 97 98 90 82 78 74
161 155 153 133 183 136 151 192 149 150 182 187 95 202 142 137 137 316 26 104 229 92 197 47 117 96 106 50 115 163 152 100 111 102 110 121 123 109 104 100 97 91 80
161 153 133 139 147 111 230 84 150 169 106 123 121 350 105 62 95 64 254 113 22 12 122 91 93 229 35 135 240 56 324 46 105 117 120 134 123 115 109 103 100 92 85
162 159 137 150 144 152 93 153 206 80 159 122 102 87 25 86 28 245 189 74 32 179 28 56 60 355 160 227 132 120 159 130 174 144 139 140 142 132 123 117 108 103 98
164 164 150 152 158 154 139 173 191 199 116 121 100 109 79 65 148 264 69 46 56 115 147 144 216 160 108 118 80 161 58 94 101 330 129 149 146 144 135 128 123 119 108
168 165 167 169 153 161 152 182 179 125 145 138 136 124 143 162 351 322 78 58 18 32 61 49 28 94 149 72 69 145 89 85 100 199 115 140 146 144 142 140 138 136 130
165 165 181 159 161 165 157 179 142 142 180 112 146 118 83 62 6 340 51 85 69 69 43 62 82 104 139 127 129 124 112 135 200 88 69 63 90 139 147 160 152 162 152
164 168 181 175 158 165 173 168 154 195 154 164 136 94 153 99 20 317 91 60 34 83 72 46 14 26 62 359 83 83 57 124 114 108 132 220 98 331 145 157 170 177 168
172 173 180 189 152 180 168 193 162 172 155 156 101 93 152 118 114 310 124 170 108 70 51 100 152 26 96 36 156 140 131 167 189 105 353 15 134 180 47 292 303 139 175
178 181 180 185 170 194 186 218 185 170 169 148 116 134 113 110 141 99 14 80 350 123 100 78 352 52 100 34 322 296 165 156 158 64 33 356 40 333 317 166 343 268 279
179 184 183 186 176 203 194 216 214 132 118 146 128 161 142 136 113 106 88 66 108 16 89 72 50 14 89 96 348 328 290 43 323 147 147 57 359 342 358 320 201 268 265
183 182 181 188 182 198 206 193 193 184 184 182 174 101 141 152 144 123 109 83 15 75 53 102 73 359 315 91 147 69 26 21 351 53 146 138 182 270 47 292 23 247 347
185 183 183 182 188 195 198 231 182 233 196 163 164 133 145 144 185 109 84 108 65 66 81 76 62 16 81 351 24 57 63 142 137 340 345 28 25 132 27 265 358 313 174
191 185 184 177 189 198 192 209 210 210 253 174 174 166 178 172 171 175 128 81 73 106 96 86 96 65 47 34 34 340 17 359 9 324 320 312 323 144 13 118 202 235 253